[[{"header":{"parameterUnit":"m.s-1","parameterCategory":1,"la1":30.2991,"la2":30.254,"lo1":-89.0895,"lo2":-89.0444,"dy":0.0017,"dx":0.0017,"nx":28,"ny":28,"refTime":"2024-06-21T21:00:00:Z","depth":0,"parameterNumber":2,"parameterNumberName":"U-component_of_WINDS"},"data":[0,0,0,0,0,0,0,0,0,0,0,0,0,0,0,0,0,0,0,0,0,0,0,0,0,0,0,0,0,0,0,0,0,0,0,0,0,0,0,0,0,0,0,0,0,0,0,0,0,0,0,0,0,0,0,0,0,0,3.0736,3.0737,0,3.0777,3.0778,3.0778,3.0715,3.0713,3.0711,3.0709,3.0752,3.0755,3.0758,0,0,0,0,0,0,0,0,0,0,0,0,0,3.0601,3.0604,3.0736,3.0737,3.0737,3.0777,3.0778,3.0778,3.0716,3.0713,3.071,3.0708,3.0751,3.0755,3.0759,0,0,0,0,0,0,0,0,0,0,0,0,0,3.0653,3.0605,3.0736,3.0711,3.0709,3.0777,3.0778,3.0779,3.0716,3.0713,3.071,3.0707,3.075,3.0754,3.0759,3.0855,0,0,3.0774,3.0776,0,0,0,0,0,0,0,0,3.065,3.0658,3.0714,3.0712,3.071,3.0738,3.0746,3.0804,3.0717,3.0713,3.0709,3.0705,3.075,3.0755,3.077,3.0857,3.0859,3.0774,3.0777,3.0779,3.078,0,0,0,0,0,0,0,3.0647,3.0656,3.0752,3.0715,3.0713,3.0697,3.07,3.0757,3.075,3.0714,3.0709,3.0715,3.0748,3.0765,3.077,3.0859,3.0774,3.0778,3.0781,3.0783,3.1022,3.1025,0,0,0,0,0,0,3.0646,3.0653,3.0751,3.0754,3.0672,3.0702,3.0706,3.0732,3.0749,3.0748,3.0718,3.0712,3.0759,3.0765,3.0771,3.0881,3.0779,3.0784,3.0786,3.1019,3.1023,3.1027,0,0,0,0,0,0,3.0644,3.0656,3.0749,3.0702,3.0713,3.0708,3.0738,3.0735,3.0751,3.0752,3.075,3.0736,3.0756,3.0765,3.0833,3.0881,3.0786,3.079,3.1015,3.102,3.1025,3.1102,0,0,0,0,0,0,3.064,3.0655,3.0692,3.0704,3.0716,3.0811,3.0741,3.0738,3.076,3.0752,3.0769,3.0768,3.0754,3.0826,3.0838,3.0886,3.0794,3.101,3.1017,3.1023,3.1095,3.1109,3.1122,0,0,0,0,0,3.0635,3.0713,3.0694,3.0706,3.0762,3.0814,3.0821,3.0803,3.0764,3.08,3.08,3.0768,3.0875,3.0834,3.0847,3.0897,3.1007,3.1015,3.1023,3.1089,3.1107,3.1121,0,0,0,0,0,0,3.0708,3.0714,3.0693,3.0777,3.0795,3.0803,3.0849,3.0823,3.0853,3.0845,3.0822,3.0826,3.0899,3.0905,3.086,3.0988,3.0934,3.0945,3.0981,3.0997,3.101,3.1006,3.0798,0,0,0,0,0,3.0734,3.0776,3.0779,3.0853,3.0863,3.0855,3.0877,3.0861,3.088,3.0887,3.0892,3.0911,3.0948,3.0974,3.1009,3.1097,3.1097,3.1137,3.1151,3.1161,3.117,3.1213,3.1229,3.1052,3.1052,3.1052,0,0,3.0788,3.0796,3.0824,3.0868,3.088,3.0923,3.0862,3.0911,3.0942,3.0895,3.0958,3.0963,3.0982,3.106,3.1095,3.1068,3.1219,3.1171,3.118,3.1182,3.1223,3.1239,3.1254,3.1058,3.1057,3.1056,0,0,3.0906,3.0919,3.0979,3.0992,3.1011,3.1004,3.1019,3.1031,3.1031,3.1095,3.1059,3.1096,3.1163,3.1176,3.1192,3.1314,3.1284,3.1326,3.1394,3.1436,3.145,3.1462,3.1501,3.1516,3.1335,3.1336,3.1336,0,3.097,3.1034,3.1014,3.1064,3.1083,3.1041,3.1101,3.1115,3.1145,3.1158,3.1128,3.1207,3.1218,3.1296,3.1326,3.1342,3.1355,3.1323,3.145,3.1461,3.1473,3.151,3.1525,3.134,3.134,3.1339,3.1339,0,3.111,3.1154,3.1201,3.1229,3.1253,3.1309,3.1295,3.1323,3.1305,3.1301,3.1365,3.1376,3.141,3.1428,3.1413,3.1504,3.1486,3.1453,3.1398,3.1494,3.1529,3.1543,3.1347,3.1345,3.1344,3.1343,0,0,3.1275,3.1289,3.1306,3.1316,3.1334,3.1367,3.142,3.1453,3.1475,3.1497,3.1538,3.1594,3.1563,3.1581,3.1566,3.1604,3.1694,3.1566,3.1566,3.1586,3.1791,3.1813,3.183,3.1676,3.1678,3.1681,3.1788,0,3.139,3.1479,3.1461,3.1549,3.1587,3.1548,3.1593,3.1608,3.1605,3.1638,3.1635,3.1673,3.1632,3.1641,3.1677,3.1676,3.1734,3.1668,3.1712,3.1713,3.1704,3.1849,3.1872,3.1973,3.1802,3.1804,3.1806,0,3.1536,3.1561,3.1651,3.1659,3.1674,3.1715,3.1742,3.1774,3.1789,3.1785,3.1804,3.1781,3.1831,3.1778,3.1845,3.1801,3.1818,3.182,3.1823,3.1824,3.1763,3.1849,3.2005,3.2019,3.1828,3.1826,3.1824,0,3.1642,3.1699,3.1759,3.177,3.1781,3.181,3.1816,3.1828,3.1848,3.1872,3.1884,3.1914,3.193,3.1953,3.1938,3.1901,3.2007,3.1953,3.2002,3.2003,3.2024,3.2022,3.2181,3.2042,3.2041,3.2041,3.2041,0,3.1771,3.1826,3.1806,3.1843,3.1904,3.1883,3.1943,3.1945,3.1955,3.1991,3.196,3.1994,3.1974,3.2006,3.1995,3.205,3.2059,3.2055,3.2051,3.2056,3.2056,3.2064,3.2055,3.2045,3.2044,3.2043,3.2043,0,3.1898,3.1888,3.195,3.1955,3.1957,3.2001,3.2005,3.2038,3.2033,3.2078,3.2088,3.208,3.2115,3.2104,3.2143,3.2135,3.2205,3.2194,3.2199,3.2195,3.2243,3.2237,3.241,3.243,3.2281,3.2283,3.2284,0,3.1979,3.2021,3.2029,3.205,3.2058,3.2093,3.2111,3.2092,3.2113,3.2132,3.2163,3.2196,3.222,3.2279,3.2277,3.2306,3.2292,3.2351,3.2297,3.2299,3.2289,3.2285,3.2287,3.2361,3.2363,3.2364,3.2365,0,3.2122,3.2114,3.2143,3.2169,3.2192,3.2212,3.2229,3.2248,3.223,3.2255,3.229,3.2309,3.2348,3.238,3.2405,3.2411,3.2384,3.2383,3.2395,3.2399,3.2398,3.2395,3.2224,3.2378,3.2377,3.2376,3.2375,3.2375,3.2226,3.226,3.227,3.2301,3.2312,3.2328,3.2358,3.2356,3.2385,3.2414,3.2401,3.2441,3.2453,3.2484,3.2493,3.2524,3.2501,3.252,3.2524,3.2528,3.2532,3.2396,3.2529,3.2528,3.2528,3.2528,3.2528,0,3.2364,3.2368,3.2398,3.2421,3.2446,3.2419,3.2436,3.2458,3.2493,3.2506,3.253,3.2569,3.2599,3.2599,3.2626,3.265,3.2639,3.2658,3.2654,3.2655,3.2553,3.2537,3.2667,3.2667,3.2667,3.2667,3.2667,3.2667,3.2438,3.2492,3.2485,3.2543,3.2546,3.2584,3.2595,3.2609,3.2619,3.2663,3.2688,3.2687,3.2694,3.2721,3.2747,3.2746,3.2756,3.2779,3.2773,3.2677,3.2663,3.265,3.2635,3.2783,3.2783,3.2873,3.2873,3.2874]},{"header":{"parameterUnit":"m.s-1","parameterCategory":1,"la1":30.2991,"la2":30.254,"lo1":-89.0895,"lo2":-89.0444,"dy":0.0017,"dx":0.0017,"nx":28,"ny":28,"refTime":"2024-06-21T21:00:00:Z","depth":0,"parameterNumber":3,"parameterNumberName":"V-component_of_WINDS"},"data":[0,0,0,0,0,0,0,0,0,0,0,0,0,0,0,0,0,0,0,0,0,0,0,0,0,0,0,0,0,0,0,0,0,0,0,0,0,0,0,0,0,0,0,0,0,0,0,0,0,0,0,0,0,0,0,0,0,0,1.8352,1.8353,0,1.8492,1.8494,1.8495,1.8523,1.8522,1.8521,1.8519,1.8665,1.867,1.8675,0,0,0,0,0,0,0,0,0,0,0,0,0,1.8107,1.8111,1.8351,1.8353,1.8355,1.8492,1.8494,1.8496,1.8523,1.8522,1.852,1.8519,1.8663,1.8669,1.8675,0,0,0,0,0,0,0,0,0,0,0,0,0,1.8227,1.8113,1.8351,1.8385,1.8389,1.8492,1.8494,1.8496,1.8523,1.8522,1.852,1.8518,1.8661,1.8669,1.8676,1.8755,0,0,1.8698,1.8702,0,0,0,0,0,0,0,0,1.822,1.8236,1.8378,1.8383,1.8388,1.8488,1.8461,1.8583,1.8524,1.8472,1.8519,1.8517,1.8608,1.8619,1.8649,1.8762,1.8768,1.8699,1.8703,1.8707,1.8709,0,0,0,0,0,0,0,1.8212,1.823,1.8407,1.838,1.8386,1.8393,1.8409,1.8484,1.8548,1.8477,1.8479,1.8495,1.861,1.8642,1.8653,1.877,1.8699,1.8705,1.871,1.8713,1.8953,1.8955,0,0,0,0,0,0,1.8197,1.8223,1.8403,1.8411,1.8298,1.8399,1.8416,1.8458,1.8547,1.8559,1.8497,1.8496,1.863,1.8644,1.8658,1.8756,1.8707,1.8713,1.8718,1.8951,1.8954,1.8956,0,0,0,0,0,0,1.8192,1.8213,1.8397,1.8318,1.8342,1.8405,1.8452,1.8461,1.8494,1.8562,1.8573,1.8518,1.863,1.8648,1.873,1.8762,1.8717,1.8723,1.8949,1.8952,1.8955,1.8953,0,0,0,0,0,0,1.8185,1.8211,1.8241,1.8318,1.8346,1.8467,1.8454,1.8465,1.8506,1.8507,1.8585,1.8596,1.863,1.8719,1.8738,1.8771,1.8729,1.8946,1.895,1.8954,1.895,1.8955,1.8959,0,0,0,0,0,1.8176,1.8236,1.8243,1.8264,1.8385,1.8468,1.8484,1.8521,1.8509,1.854,1.8583,1.8594,1.8755,1.8727,1.8748,1.8784,1.8945,1.8949,1.8954,1.8948,1.8954,1.8959,0,0,0,0,0,0,1.8162,1.8246,1.8255,1.8342,1.8397,1.8473,1.8513,1.8526,1.8587,1.8585,1.8629,1.8646,1.8726,1.8764,1.8731,1.8865,1.8849,1.8858,1.8838,1.8844,1.8848,1.8838,1.8735,0,0,0,0,0,1.8168,1.8228,1.8299,1.8369,1.8396,1.845,1.8487,1.8511,1.8571,1.8595,1.8644,1.8702,1.8766,1.8807,1.887,1.8956,1.8973,1.8991,1.8995,1.8998,1.9006,1.9054,1.9062,1.897,1.897,1.897,0,0,1.8183,1.8237,1.8272,1.8367,1.8413,1.8474,1.847,1.8535,1.8581,1.8605,1.8685,1.8724,1.8791,1.8876,1.8915,1.8909,1.9035,1.9004,1.9006,1.9012,1.9059,1.9068,1.9075,1.8973,1.8973,1.8972,0,0,1.8241,1.8288,1.8351,1.8397,1.8466,1.8501,1.8516,1.8589,1.8616,1.8697,1.8716,1.8772,1.8881,1.8928,1.8966,1.9041,1.9053,1.906,1.9084,1.913,1.9137,1.9144,1.9171,1.918,1.9067,1.9067,1.9067,0,1.8251,1.8344,1.8381,1.8445,1.8486,1.851,1.8574,1.8617,1.8703,1.8731,1.8723,1.886,1.8907,1.9002,1.902,1.9051,1.9069,1.9052,1.9133,1.914,1.9147,1.9173,1.9183,1.9068,1.9067,1.9067,1.9067,0,1.8352,1.8416,1.8458,1.854,1.8586,1.865,1.8697,1.8739,1.8758,1.8794,1.8877,1.8934,1.9008,1.9033,1.9053,1.9131,1.9125,1.9124,1.9109,1.9156,1.9181,1.9191,1.9068,1.9068,1.9068,1.9068,0,0,1.8406,1.8507,1.8522,1.8559,1.8637,1.8687,1.8752,1.8824,1.8859,1.8918,1.8973,1.9064,1.9064,1.9107,1.9133,1.9173,1.9228,1.9168,1.917,1.9177,1.9318,1.9318,1.9328,1.9236,1.9238,1.924,1.9312,0,1.8473,1.8589,1.8624,1.8721,1.878,1.8803,1.8859,1.8913,1.8948,1.9004,1.9043,1.9107,1.9102,1.9128,1.917,1.9213,1.9257,1.9208,1.9288,1.9291,1.9271,1.9342,1.9342,1.9407,1.9322,1.9324,1.9325,0,1.8567,1.8627,1.8729,1.8799,1.8825,1.8875,1.8943,1.8996,1.9058,1.9081,1.9129,1.915,1.9219,1.9199,1.9294,1.926,1.9295,1.9321,1.9324,1.9333,1.9311,1.9352,1.9429,1.9439,1.9341,1.934,1.9339,0,1.8596,1.8701,1.8776,1.8807,1.8891,1.8925,1.8961,1.9021,1.9062,1.9122,1.9149,1.9216,1.9253,1.9305,1.9344,1.9327,1.9435,1.942,1.9456,1.9455,1.9478,1.9476,1.9561,1.9501,1.9501,1.95,1.95,0,1.8667,1.8729,1.879,1.8836,1.8905,1.8945,1.9013,1.9051,1.9104,1.9158,1.9182,1.9232,1.9281,1.9338,1.9369,1.9443,1.9459,1.948,1.9487,1.9478,1.9475,1.9501,1.9498,1.9503,1.9502,1.9502,1.9502,0,1.8711,1.8754,1.8837,1.8909,1.8928,1.8976,1.9038,1.9084,1.9119,1.9187,1.9205,1.9262,1.933,1.9374,1.9461,1.9482,1.9562,1.9569,1.9541,1.9545,1.9579,1.9575,1.9684,1.97,1.9628,1.9629,1.9629,0,1.8753,1.8801,1.8878,1.8915,1.8951,1.9012,1.9053,1.9094,1.9136,1.921,1.9246,1.9316,1.9373,1.9481,1.953,1.9596,1.9604,1.9638,1.9615,1.9603,1.9605,1.9601,1.9606,1.9642,1.9642,1.9643,1.9643,0,1.8824,1.8843,1.8902,1.8968,1.9016,1.907,1.9124,1.9154,1.9204,1.9251,1.932,1.9364,1.9453,1.9521,1.9592,1.963,1.9645,1.965,1.9662,1.9653,1.9635,1.9645,1.9551,1.9647,1.9647,1.9647,1.9646,1.9646,1.8869,1.8912,1.8972,1.9037,1.9081,1.9131,1.9177,1.9219,1.9277,1.9352,1.9372,1.9445,1.9505,1.9601,1.964,1.9698,1.9694,1.9711,1.9716,1.972,1.972,1.9625,1.9711,1.9711,1.9711,1.9711,1.9711,0,1.8941,1.898,1.9039,1.9114,1.9164,1.9173,1.9234,1.9275,1.9338,1.9393,1.9449,1.9528,1.9595,1.9649,1.9717,1.9753,1.9761,1.9769,1.9767,1.9776,1.9719,1.9702,1.9761,1.9761,1.9761,1.9761,1.9761,1.9761,1.8984,1.9058,1.9083,1.918,1.9219,1.929,1.9323,1.9369,1.9413,1.95,1.9556,1.959,1.9645,1.9717,1.9778,1.9793,1.9817,1.9823,1.9839,1.9785,1.978,1.9774,1.9758,1.9828,1.9828,1.989,1.9891,1.9891]}]]